Weather History for KFOK - November, 2012

Change the Weather History Date:

Monday, November 19, 2012

  Actual Average Record
Temperature  
Mean Temperature 44 °F -  
Max Temperature 48 °F 50 °F 63 °F (2004)
Min Temperature 39 °F 31 °F 19 °F (2000)
Degree Days  
Heating Degree Days 22    
Moisture  
Dew Point 37 °F    
Average Humidity 76    
Maximum Humidity 87    
Minimum Humidity 66    
Precipitation  
Precipitation 0.00 in - - ()
Sea Level Pressure  
Sea Level Pressure 30.41 in    
Wind  
Wind Speed 9 mph (NNE)    
Max Wind Speed 15 mph    
Max Gust Speed -    
Visibility 10 miles    
Events      
Averages and records for this station are not official NWS values.
T = Trace of Precipitation, MM = Missing Value Source: NWS Daily Summary

Daily Weather History Graph

Daily Weather History Graph

Search for Another Location

Airport or City:

Trip Planner

Search our weather history database for the weather conditions in past years. The results will help you decide how hot, cold, wet, or windy it might be!

Date:

Astronomy

Nov. 19, 2012 Rise Set
Actual Time 6:42 AM EST 4:28 PM EST
Civil Twilight 6:13 AM EST 4:58 PM EST
Nautical Twilight 5:39 AM EST 5:31 PM EST
Astronomical Twilight 5:07 AM EST 6:04 PM EST
Moon 11:43 AM EST (11/19) 10:53 PM EST (11/19)
Length of Visible Light 10h 45m
Length of Day
9h 45m
Waxing Crescent, 40% of the Moon is Illuminated
Nov 19
Waxing Crescent
Nov 20
First Quarter
Nov 28
Full
Dec 6
Last Quarter
Dec 13
New

Hourly Weather History & Observations

Time (EST) Temp. Windchill Dew Point Humidity Pressure Visibility Wind Dir Wind Speed Gust Speed Precip Events Conditions
12:53 AM 41.0 °F 34.7 °F 34.0 °F 76% 30.56 in 10.0 mi North 10.4 mph - N/A   Clear
1:53 AM 39.9 °F 34.5 °F 34.0 °F 79% 30.55 in 10.0 mi NE 8.1 mph - N/A   Clear
2:53 AM 41.0 °F 34.7 °F 35.1 °F 79% 30.53 in 10.0 mi NE 10.4 mph - N/A   Clear
3:53 AM 41.0 °F 35.2 °F 35.1 °F 79% 30.52 in 10.0 mi NNE 9.2 mph - N/A   Clear
4:53 AM 41.0 °F 34.7 °F 35.1 °F 79% 30.51 in 10.0 mi NNE 10.4 mph - N/A   Clear
5:53 AM 39.0 °F 34.0 °F 34.0 °F 82% 30.51 in 10.0 mi NNE 6.9 mph - N/A   Scattered Clouds
6:06 AM 39.2 °F 35.0 °F 35.6 °F 87% 30.50 in 10.0 mi NNE 5.8 mph - N/A   Mostly Cloudy
6:53 AM 41.0 °F 35.8 °F 35.1 °F 79% 30.51 in 10.0 mi NNE 8.1 mph - N/A   Overcast
7:53 AM 43.0 °F 36.4 °F 36.0 °F 76% 30.49 in 10.0 mi NNE 12.7 mph - N/A   Overcast
8:48 AM 44.6 °F - 35.6 °F 71% 30.47 in - North - - N/A   Unknown
8:53 AM 44.1 °F - 36.0 °F 73% 30.48 in - North - - N/A   Unknown
9:53 AM - - - N/A% 30.47 in - North - - N/A   Unknown
10:53 AM 46.0 °F 39.6 °F 37.0 °F 71% 30.44 in 10.0 mi NNE 15.0 mph - N/A   Unknown
11:53 AM 46.9 °F - 37.9 °F 71% 30.42 in 10.0 mi NNE 13.8 mph - N/A   Overcast
12:53 PM 48.0 °F - 37.9 °F 68% 30.39 in 10.0 mi NNE 8.1 mph - N/A   Overcast
1:53 PM 48.9 °F - 37.9 °F 66% 30.37 in 10.0 mi North 9.2 mph - N/A   Overcast
2:53 PM 48.9 °F - 39.0 °F 69% 30.36 in 10.0 mi NNE 9.2 mph - N/A   Overcast
3:53 PM 48.9 °F - 39.9 °F 71% 30.35 in 10.0 mi NNE 9.2 mph - N/A   Overcast
4:53 PM 48.9 °F - 39.9 °F 71% 30.34 in 10.0 mi NE 6.9 mph - N/A   Overcast
5:53 PM 48.9 °F - 41.0 °F 74% 30.35 in 10.0 mi NE 6.9 mph - N/A   Overcast
6:53 PM 48.9 °F - 39.9 °F 71% 30.32 in 10.0 mi NE 6.9 mph - N/A   Overcast
7:53 PM 48.0 °F - 39.9 °F 74% 30.31 in 10.0 mi NE 10.4 mph - N/A   Overcast
8:53 PM 43.0 °F 40.3 °F 37.0 °F 80% 30.30 in 10.0 mi NNE 4.6 mph - N/A   Scattered Clouds
9:21 PM 44.6 °F 42.2 °F 37.4 °F 76% 30.29 in 10.0 mi North 4.6 mph - N/A   Mostly Cloudy
10:00 PM 42.8 °F 39.3 °F 37.4 °F 81% 30.28 in 10.0 mi NNE 5.8 mph - N/A   Scattered Clouds
10:53 PM 41.0 °F 38.0 °F 36.0 °F 82% 30.27 in 10.0 mi NNE 4.6 mph - N/A   Clear
11:53 PM 39.9 °F 35.8 °F 36.0 °F 86% 30.26 in 10.0 mi NNE 5.8 mph - N/A   Clear